Regional Weather Roundup
Issued by NWS

Home | Current Version | Previous Version | Graphics & Text | Print | Product List | Glossary Off
Versions: 1 2 3 4 5 6 7 8 9 10 11 12 13 14 15 16 17 18 19 20 21 22 23 24 25 26 27 28 29 30 31 32 33 34 35 36 37 38 39 40 41 42 43 44 45 46 47 48 49 50

000
ASUS43 KFSD 161310
RWRSD

WEATHER ROUNDUP FOR SOUTH DAKOTA
NATIONAL WEATHER SERVICE SIOUX FALLS SD
800 AM CDT TUE SEP 16 2014

NOTE: "FAIR" INDICATES FEW OR NO CLOUDS BELOW 12,000 FEET WITH NO
SIGNIFICANT WEATHER AND/OR OBSTRUCTIONS TO VISIBILITY.


SDZ001>005-009-010-012>017-161400-
NORTHWEST AND NORTH CENTRAL SOUTH DAKOTA

CITY           SKY/WX    TMP DP  RH WIND       PRES   REMARKS
BUFFALO          N/A     43  40  89 W3        29.97S
FAITH            N/A     41  38  89 CALM      30.03R
MOBRIDGE       CLEAR     46  43  89 SE5       30.02F
$$

SDZ012>016-024>037-041>051-057-063-072>074-161400-
SOUTHWEST AND SOUTH CENTRAL SOUTH DAKOTA

CITY           SKY/WX    TMP DP  RH WIND       PRES   REMARKS
RAPID CTY ARPT CLEAR     42  39  89 NW3       30.03F
PIERRE         CLEAR     47  41  80 SE10      30.03F
CUSTER         PTCLDY    50  34  54 NW3       30.14R
ELLSWORTH AFB  CLEAR     48  42  80 NW2       30.04R
PHILIP         CLEAR     39  36  89 W3        30.02F
PINE RIDGE     CLEAR     50  47  89 SW3       30.05S
WINNER         FAIR      52  42  69 S21       30.05F
$$

SDZ004>011-016>023-039-040-161400-
NORTHEAST SOUTH DAKOTA

CITY           SKY/WX    TMP DP  RH WIND       PRES   REMARKS
ABERDEEN       CLEAR     37  36  96 SE6       30.10F
WATERTOWN      CLEAR     39  37  92 SE7       30.14F
SISSETON         N/A     51  40  65 SW7       30.10F
$$

SDZ017-020-022-023-036>040-048>070-161400-
SOUTHEAST SOUTH DAKOTA

CITY           SKY/WX    TMP DP  RH WIND       PRES   REMARKS
SIOUX FALLS    CLEAR     45  42  89 S7        30.19S
HURON          CLEAR     42  38  85 S7        30.12F
CHAMBERLAIN    CLEAR     44  42  89 E6        30.08F
MITCHELL       CLEAR     43  41  93 SE8       30.15F
YANKTON        CLEAR     45  39  81 S6        30.19S
$$

ABBREVIATIONS USED IN REMARKS
   TC - TEMPERATURE IN CELSIUS
  WCI - WIND CHILL INDEX
   HX - HEAT INDEX
  VSB - VISIBILITY




USA.gov is the U.S. government's official web portal to all federal, state and local government web resources and services.